Home > Weather > Bamako > Past weeks

Flag for Mali Weather for the Past 2 Weeks in Bamako, Mali

Now
61 °F

Clear.


Feels Like: 61 °F
Forecast: 59 / 95 °F
Wind: 9 mph from Northeast

Location: Bamako / Senou

Current Time: Feb 6, 2016 at 8:23:13 AM

Latest Report: Feb 6, 2016 at 6:00 AM


Visibility: 5 mi

Pressure: 30.04 "Hg

Humidity: 39%

Dew point: 36 °F

Location of BamakoLocation

Historic Weather in Bamako — Graph

°F

Bamako Temperature Yesterday

Maximum temperature yesterday: 93 °F (at 4:00 PM)
Minimum temperature yesterday: 66 °F (at 7:00 AM)
Average temperature yesterday: 79 °F

High & Low Weather Summary for the Past Weeks

 TemperatureHumidityPressure
High93 °F (Jan 24, 3:00 PM)51% (Jan 24, 5:00 AM)30.15 "Hg (Jan 24, 5:00 AM)
Low57 °F (Jan 24, 5:00 AM)8% (Jan 24, 1:00 PM)29.92 "Hg (Feb 2, 3:00 PM)
Average77 °F19%30.04 "Hg
* Reported Jan 22 6:00 AM — Feb 6 6:00 AM, Bamako, Weather by CustomWeather, © 2016

Note: Actual official high and low records may vary slightly from our data, if they occured in-between our weather recording intervals... More about our weather records

Advertising

Bamako Weather History for the Previous 24 Hours

 ConditionsComfort  
Time TempWeatherWind HumidityBarometerVisibility
6:00 AM
Sat, Feb 6
61 °FClear.9 mph39%30.04 "Hg5 mi
4:00 AM66 °FClear.6 mph28%30.01 "Hg5 mi
3:00 AM63 °FClear.5 mph39%30.01 "Hg5 mi
2:00 AM68 °FClear.1 mph26%30.01 "Hg5 mi
1:00 AM66 °FClear.7 mph28%30.01 "Hg5 mi
12:00 AM79 °FClear.9 mph17%30.01 "Hg4 mi
11:00 PM
Fri, Feb 5
73 °FClear.9 mph20%30.04 "Hg5 mi
10:00 PM72 °FClear.8 mph23%30.04 "Hg5 mi
9:00 PM73 °FClear.9 mph20%30.01 "Hg4 mi
8:00 PM77 °FClear.7 mph19%29.98 "Hg4 mi
7:00 PM82 °FDuststorm.5 mph12%29.98 "Hg2 mi
6:00 PM90 °FDuststorm.5 mph16%29.92 "Hg2 mi
5:00 PM93 °FDuststorm.5 mph8%29.95 "Hg2 mi
4:00 PM93 °FDuststorm.7 mph8%29.95 "Hg2 mi
3:00 PM91 °FDuststorm.7 mph10%29.95 "Hg2 mi
2:00 PM91 °FDuststorm.6 mph9%29.98 "Hg2 mi
1:30 PM91 °FDuststorm.8 mph9%29.98 "Hg2 mi
12:00 PM88 °FClear.12 mph10%30.04 "Hg5 mi
11:00 AM84 °FClear.13 mph11%30.04 "Hg5 mi
10:00 AM79 °FClear.12 mph15%30.07 "Hg5 mi
9:00 AM75 °FClear.9 mph16%30.04 "Hg5 mi
8:00 AM70 °FClear.8 mph21%30.04 "Hg5 mi
Weather by CustomWeather, © 2016

See weather overviewHow to use our weather pages